,

(GMT )
Elsenborn

Weather History for EBLB - July, 2013

Change the Weather History Date:

Wednesday, July 10, 2013

  Actual Average Record
Temperature  
Mean Temperature 58 °F -  
Max Temperature 68 °F 59 °F 80 °F (2016)
Min Temperature 49 °F 49 °F 32 °F (2015)
Degree Days  
Heating Degree Days 6    
Growing Degree Days 8 (Base 50)    
Moisture  
Dew Point 53 °F    
Average Humidity 75    
Maximum Humidity 94    
Minimum Humidity 52    
Precipitation  
Precipitation 0.00 in - - ()
Sea Level Pressure  
Sea Level Pressure 30.16 in    
Wind  
Wind Speed 7 mph ()    
Max Wind Speed 13 mph    
Max Gust Speed -    
Visibility 8.0 miles    
Events      
Averages and records for this station are not official NWS values.
T = Trace of Precipitation, MM = Missing Value Source: Averaged Metar Reports

Daily Weather History Graph

Daily Weather History Graph

Search for Another Location

Airport or City:

Trip Planner

Search our weather history database for the weather conditions in past years. The results will help you decide how hot, cold, wet, or windy it might be!

Date:

Astronomy

Jul. 10, 2013 Rise Set
Actual Time 5:35 AM CEST 9:45 PM CEST
Civil Twilight 4:51 AM CEST 10:29 PM CEST
Nautical Twilight 3:48 AM CEST 11:31 PM CEST
Astronomical Twilight 2:13 AM CEST 1:08 AM CEST
Moon 8:00 AM CEST (7/10) 10:24 PM CEST (7/10)
Length of Visible Light 17h 37m
Length of Day
16h 10m
Waxing Crescent, 4% of the Moon is Illuminated
Jul 10
Waxing Crescent
Jul 16
First Quarter
Jul 22
Full
Jul 29
Last Quarter
Aug 6
New

Hourly Weather History & Observations

Time (CEST) Temp. Dew Point Humidity Pressure Visibility Wind Dir Wind Speed Gust Speed Precip Events Conditions
12:25 AM 59.0 °F 51.8 °F 77% 30.24 in 6.2 mi NNE 4.6 mph - N/A   Clear
1:25 AM 57.2 °F 51.8 °F 82% 30.21 in 6.2 mi Variable 3.5 mph - N/A   Clear
2:00 AM 57 °F 51 °F 72% 30.21 in 16 mi NNE 4.5 mph - -  
2:25 AM 57.2 °F 50.0 °F 77% 30.21 in 6.2 mi Variable 3.5 mph - N/A   Clear
3:25 AM 57.2 °F 50.0 °F 77% 30.21 in 6.2 mi Variable 3.5 mph - N/A   Clear
4:25 AM 55.4 °F 50.0 °F 82% 30.18 in 6.2 mi Variable 3.5 mph - N/A   Clear
5:00 AM 54 °F 49 °F 79% 30.18 in 11 mi Calm Calm - -  
5:25 AM 51.8 °F 50.0 °F 94% 30.18 in 6.2 mi Variable 2.3 mph - N/A   Clear
6:25 AM 53.6 °F 51.8 °F 94% 30.18 in 6.2 mi Variable 2.3 mph - N/A   Clear
7:25 AM 57.2 °F 53.6 °F 88% 30.18 in 6.2 mi ENE 4.6 mph - N/A   Partly Cloudy
8:00 AM 59 °F 53 °F 75% 30.17 in 12 mi NE 4.5 mph - -   Clear
8:25 AM 60.8 °F 51.8 °F 72% 30.18 in 6.2 mi NE 6.9 mph - N/A   Partly Cloudy
9:25 AM 64.4 °F 55.4 °F 73% 30.18 in 6.2 mi NE 6.9 mph - N/A   Partly Cloudy
10:25 AM 64.4 °F 46.4 °F 52% 30.18 in 6.2 mi NNE 11.5 mph - N/A   Clear
11:00 AM 65 °F 52 °F 53% 30.14 in 16 mi North 13.4 mph - -  
11:25 AM 66.2 °F 57.2 °F 73% 30.18 in 6.2 mi North 10.4 mph - N/A   Partly Cloudy
12:25 PM 68.0 °F 57.2 °F 68% 30.18 in 6.2 mi NE 11.5 mph - N/A   Partly Cloudy
12:51 PM 68.0 °F 57.2 °F 68% 30.18 in 6.2 mi NE 12.7 mph - N/A   Scattered Clouds
1:25 PM 66.2 °F 55.4 °F 68% 30.18 in 6.2 mi NNE 9.2 mph - N/A   Scattered Clouds
1:29 PM 66.2 °F 57.2 °F 73% 30.18 in 6.2 mi NNE 10.4 mph - N/A   Scattered Clouds
2:00 PM 68 °F 56 °F 56% 30.12 in 19 mi NNE 8.9 mph - -   Partly Cloudy
2:25 PM 68.0 °F 57.2 °F 68% 30.18 in 6.2 mi NNE 11.5 mph - N/A   Scattered Clouds
3:25 PM 68.0 °F 57.2 °F 68% 30.18 in 6.2 mi North 9.2 mph - N/A   Scattered Clouds
4:25 PM 68.0 °F 57.2 °F 68% 30.18 in 6.2 mi North 9.2 mph - N/A   Scattered Clouds
4:59 PM 66.2 °F 57.2 °F 73% 30.15 in 6.2 mi North 11.5 mph - N/A   Mostly Cloudy
5:00 PM 66 °F 56 °F 63% 30.11 in 17 mi North 11.2 mph - -   Mostly Cloudy
5:25 PM 64.4 °F 55.4 °F 73% 30.15 in 6.2 mi North 11.5 mph - N/A   Mostly Cloudy
5:54 PM 62.6 °F 55.4 °F 77% 30.15 in 6.2 mi North 10.4 mph - N/A   Mostly Cloudy
6:00 PM 62 °F 56 °F 74% 30.12 in 11 mi North 11.2 mph - -   Scattered Clouds
6:25 PM 62.6 °F 55.4 °F 77% 30.15 in 6.2 mi North 11.5 mph - N/A   Overcast
6:59 PM 62.6 °F 53.6 °F 72% 30.15 in 6.2 mi North 9.2 mph - N/A   Mostly Cloudy
7:00 PM 63 °F 55 °F 67% 30.11 in 15 mi North 8.9 mph - -   Partly Cloudy
7:09 PM 62.6 °F 53.6 °F 72% 30.15 in 6.2 mi North 8.1 mph - N/A   Mostly Cloudy
7:25 PM 62.6 °F 53.6 °F 72% 30.15 in 6.2 mi North 9.2 mph - N/A   Mostly Cloudy
7:28 PM 62.6 °F 53.6 °F 72% 30.15 in 6.2 mi North 10.4 mph - N/A   Scattered Clouds
8:00 PM 49 °F 45 °F 81% 30.17 in 9 mi NNE 11.2 mph - -   Mostly Cloudy
8:25 PM 60.8 °F 53.6 °F 77% 30.15 in 6.2 mi North 9.2 mph - N/A   Partly Cloudy
9:00 PM 59 °F 52 °F 71% 30.11 in 12 mi North 8.9 mph - -   Scattered Clouds
9:25 PM 59.0 °F 51.8 °F 77% 30.15 in 6.2 mi North 6.9 mph - N/A   Scattered Clouds
10:00 PM 58 °F 52 °F 73% 30.12 in 12 mi North 8.9 mph - -   Partly Cloudy
10:04 PM 57.2 °F 51.8 °F 82% 30.15 in 6.2 mi North 9.2 mph - N/A   Mostly Cloudy
10:10 PM 57.2 °F 51.8 °F 82% 30.15 in 6.2 mi North 9.2 mph - N/A   Mostly Cloudy
10:19 PM 57.2 °F 51.8 °F 82% 30.15 in 6.2 mi North 10.4 mph - N/A   Mostly Cloudy
10:25 PM 57.2 °F 51.8 °F 82% 30.15 in 6.2 mi North 12.7 mph - N/A   Mostly Cloudy
11:00 PM 49 °F 45 °F 81% 30.17 in 9 mi NNE 11.2 mph - -   Mostly Cloudy
11:25 PM 55.4 °F 50.0 °F 82% 30.15 in 6.2 mi NNE 10.4 mph - N/A   Mostly Cloudy
11:49 PM 53.6 °F 50.0 °F 88% 30.15 in 6.2 mi NNE 11.5 mph - N/A   Mostly Cloudy
11:55 PM 53.6 °F 50.0 °F 88% 30.15 in 6.2 mi NNE 11.5 mph - N/A   Mostly Cloudy